Regional Weather Roundup
Issued by NWS

Home | Current Version | Previous Version | Text Only | Print | Product List | Glossary Off
Versions: 1 2 3 4 5 6 7 8 9 10 11 12 13 14 15 16 17 18 19 20 21 22 23 24 25 26 27 28 29 30 31 32 33 34 35 36 37 38 39 40 41 42 43 44 45 46 47 48 49 50

943
ASUS43 KLOT 080603
RWRIL

ILLINOIS REGIONAL WEATHER ROUNDUP
NATIONAL WEATHER SERVICE CHICAGO/ROMEOVILLE IL
1200 AM CST MON FEB 08 2016

NOTE: "FAIR" INDICATES FEW OR NO CLOUDS BELOW 12,000 FEET WITH NO
SIGNIFICANT WEATHER AND/OR OBSTRUCTIONS TO VISIBILITY.

* THESE STATIONS ARE NOT UNDER NWS QUALITY CONTROL. THEY ALSO MAY NOT
  REPORT WEATHER SUCH AS PRECIPITATION OR FOG.

ILZ001-002-007-009-015-016-024-080700-
NORTHWEST ILLINOIS

CITY           SKY/WX    TMP DP  RH WIND       PRES   REMARKS
MOLINE         CLOUDY    34  30  85 W8        29.72F WCI  27
6HR MIN TEMP:  33; 6HR MAX TEMP:  39;

STERLING*      CLOUDY    34  28  80 W12       29.68F WCI  25
$$

ILZ003-004-008-010-011-017-018-080700-
NORTH CENTRAL ILLINOIS

CITY           SKY/WX    TMP DP  RH WIND       PRES   REMARKS
ROCKFORD       PTCLDY    32  27  81 SW8       29.69F WCI  25
6HR MIN TEMP:  32; 6HR MAX TEMP:  37;

FREEPORT*      CLOUDY    32  29  88 SW8       29.68F WCI  25
$$

ILZ005-006-012>014-019>023-080700-
NORTHEAST ILLINOIS

CITY           SKY/WX    TMP DP  RH WIND       PRES   REMARKS
CHICAGO-OHARE  CLEAR     32  27  81 SW8       29.68F WCI  25
6HR MIN TEMP:  32; 6HR MAX TEMP:  40;

CHICAGO-MIDWAY PTCLDY    34  26  72 SW8       29.69F WCI  27
6HR MIN TEMP:  34; 6HR MAX TEMP:  43;

AURORA         CLEAR     32  27  81 SW7       29.69F WCI  26
6HR MIN TEMP:  32; 6HR MAX TEMP:  37;

WAUKEGAN       CLEAR     32  27  81 VRB5      29.65F WCI  27
6HR MIN TEMP:  32; 6HR MAX TEMP:  39;

DUPAGE AIRPORT CLEAR     29  24  82 SW7       29.68F WCI  22
6HR MIN TEMP:  29; 6HR MAX TEMP:  38;

WHEELING       CLEAR     33  27  78 SW7       29.69F WCI  27
6HR MIN TEMP:  33; 6HR MAX TEMP:  41;

NORTHERLY ISL    N/A     36  27  70 W7          N/A  WCI  30
$$

LMZ740>746-080700-
SOUTHERN LAKE MICHIGAN

STATION/POSITION SKY/WX   TEMP    WIND        PRES    VSBY  WAVE
                          AIR SEA DIR/SP/G                  HT/PER
                          (F)     (DEG/KT/KT) (MB)    (MI)  (FT/S)
HARRISON CRIB              38     260/ 16/ 18   N/A
BURNHAM HARBOR             35     260/  5/ 12   N/A
CALUMET HARBOR             36     230/  7/ 10 1005.5F
BURNS HARBOR               37     260/  8/ 11 1007.1F
MICHIGAN CITY              35     220/ 13/ 13   N/A
$$

ILZ025>027-034>036-040-047-049-050-058-095>099-080700-
WEST-CENTRAL ILLINOIS

CITY           SKY/WX    TMP DP  RH WIND       PRES   REMARKS
QUINCY         CLOUDY    35  30  82 W12       29.81F WCI  27
MACOMB*        MOCLDY    33  30  89 W12       29.80F WCI  24
$$

ILZ028>032-037-038-041>044-048-051>054-059>061-080700-
CENTRAL ILLINOIS

CITY           SKY/WX    TMP DP  RH WIND       PRES   REMARKS
BLOOMINGTON    CLOUDY    35  31  86 SW8       29.76F WCI  28
DECATUR        CLEAR     36  29  75 W9        29.77F WCI  29
PEORIA         PTCLDY    33  26  75 W8        29.76F WCI  26
6HR MIN TEMP:  31; 6HR MAX TEMP:  42;

SPRINGFIELD    MOCLDY    36  31  82 W12       29.79F WCI  28
6HR MIN TEMP:  33; 6HR MAX TEMP:  43; 6HR PCP: TRACE;

TAYLORVILLE    NOT AVBL
$$

ILZ033-039-045-046-055>057-062-063-080700-
EAST-CENTRAL ILLINOIS

CITY           SKY/WX    TMP DP  RH WIND       PRES   REMARKS
CHAMPAIGN      CLOUDY    35  32  88 SW7       29.76F WCI  29
MATTOON        CLOUDY    34  32  92 NW5       29.77F WCI  30
$$

ILZ079-100>102-080700-
SOUTHWEST ILLINOIS

CITY           SKY/WX    TMP DP  RH WIND       PRES   REMARKS
BELLEVILLE     CLOUDY    37  32  80 CALM      29.83F
CAHOKIA*       CLOUDY    39  31  72 W3        29.84F
SPARTA*        CLEAR     37  30  77 CALM      29.85F
$$

ILZ064>066-069>071-074>076-080>082-084>086-088>090-092>094-080700-
SOUTH-CENTRAL ILLINOIS

CITY           SKY/WX    TMP DP  RH WIND       PRES   REMARKS
CARBONDALE     MOCLDY    40  30  67 W8        29.85F
6HR MIN TEMP:  40; 6HR MAX TEMP:  51; 6HR PCP: TRACE;

MT. VERNON     PTCLDY    37  30  75 SW7       29.84S WCI  32
CENTRALIA*     CLOUDY    38  35  89 W6        29.82F WCI  33
SALEM*         MOCLDY    38  33  82 SW7       29.82F WCI  33
$$

ILZ067-068-072-073-078-083-087-091-080700-
SOUTHEAST ILLINOIS

CITY           SKY/WX    TMP DP  RH WIND       PRES   REMARKS
LAWRENCEVILLE  LGT RAIN  40  35  83 W10       29.82S
HARRISBURG*    MOCLDY    39  34  83 W6        29.85S WCI  34
ROBINSON*      CLOUDY    38  33  85 W9G15     29.82F WCI  31
$$

ABBREVIATIONS USED IN REMARKS
   TC - TEMPERATURE IN CELSIUS
  WCI - WIND CHILL INDEX
   HX - HEAT INDEX
  VSB - VISIBILITY
$$





USA.gov is the U.S. government's official web portal to all federal, state and local government web resources and services.